ATLAS 5 CENTAUR DEB, 47096

Orbit data source: Space-Track

ATLAS 5 CENTAUR DEB, 47096 is space debris in HEO originally from a launch on Wed, 17 Sep 2014 UTC launched from the Air Force Eastern Test Range (AFETR). Debris objects in space refer to the collection of defunct objects orbiting the Earth. Examples of debris include non-operational satellites, rocket bodies, and fragments generated from explosions, collisions, or faulty payload assembly.

Loading next visibility...
Identifier
47096, 2014-055DE
Orbit
HEO
Last TLE update
2 days ago
Origin
Flag of USUnited Launch Alliance/Lockheed Martin (US)
Manufacturer
Unknown
Mission
Spacecraft
Bus & Motor
Unknown
Mass
Unknown
Launch date (UTC)
2014-09-17 (11 years ago)
Launch vehicle
Unknown
Launch site
Air Force Eastern Test Range (AFETR)
Object type
Payload
Rocket body
Debris
Shape & HBR
Unknown
Radar Cross Section
RCS unknown

Expand to show TLE details & history

TLE from 2 days ago
0 ATLAS 5 CENTAUR DEB
1 47096U 14055DE  25192.32327815  .00000003  00000-0  00000+0 0  9993
2 47096  19.3331 199.3261 4892371  68.6535 335.8478  1.79152154 31003
Epoch: 2025-07-11T07:45Z
TLE epoch observation values (Epoch: 2025-07-11T07:45:31.232Z)
Latitude
-0.00005°
Longitude
153.4294°
Altitude
12,097.615 km
Speed
5.406 km/s
True Right ascension
13h 17m 08s
True Declination
0° 00' 00"
Sunlit
Object was in daylight at epoch
Visualization orbit readout
Latitude
-16.14185°
Longitude
97.60457°
Altitude
24,266.547 km
Speed
3.478 km/s
Apparent Right ascension
09h 54m 15s
Apparent Declination
-20° 36' 09"
Sunlit
Object is in daylight
Visualization observer readout
Local Sidereal Time
00:03:29
Azimuth
64.583° ENE
Elevation
-56.363°
Doppler factor
1
Orbital elements
Apogee altitude
36,271.366 km
Perigee altitude
8,249.342 km
Semi-major axis
28,638.491 km
Eccentricity
0.48924
Inclination
19.3331°
RAAN
199.3261°
Arg. of periapsis
68.6535°
True anomaly
Unknown
Mean anomaly
335.8478°
Eccentric anomaly
Unknown
Mean motion
0.44783 °/min
Orbital period
803.87 mins
BSTAR
0
Loading maneuver chart data...
Loading SW <> Apogee altitude chart data...

ATLAS 5 CENTAUR DEB Visibility forecast

Observer location: undefined°, undefined°

Span
Click to sort rows by Start time (UTC) header in descending order
Start Az.
Max El. time (UTC)
Max El. Az.
Max El.
End time (UTC)
End Az.
228 mins2025-07-13 15:38:32.464Z254.736° W2025-07-13 16:52:32.464Z234.486° WSW16.108°2025-07-13 19:26:32.464Z229.385° WSW
116 mins2025-07-14 02:10:32.464Z231.383° WSW2025-07-14 03:24:32.464Z163.37° S35.959°2025-07-14 04:06:32.464Z94.305° ESE
|